Location: Newark
(34.9500°N, 139.9667°E)
Time: 23:19:55
(UTC+00:00)

Transit 2A - Pass Details

Date: 10 December 2019
Orbit: 601 x 957 km, 66.7° (Epoch: 18 January)

Event Time Altitude Azimuth Distance (km) Brightness Sun altitude
Rises 20:06:58 0° 173° (S) 3,192 9.5 -18.0°
Reaches altitude 10° 20:09:55 10° 158° (SSE) 2,204 8.9 -17.4°
Maximum altitude 20:13:38 21° 109° (ESE) 1,503 8.5 -16.7°
Drops below altitude 10° 20:17:09 10° 60° (ENE) 2,064 8.8 -16.0°
Sets 20:19:47 0° 44° (NE) 2,933 9.4 -15.5°
